User: anonymous   Login
Location: PACMO
(41.3967°N, 90.3760°W)
Time: 18:45:32
(UTC-05:00)
Language:

NOAA 19 - Orbit

View from above orbital plane
View from above orbital plane
View from above satellite
View from above satellite

Ground track
Ground track

The orbit data is extracted from the following two-line orbital elements,

1 33591U 09005A   17228.42141928  .00000110  00000-0  84508-4 0  9997
2 33591  99.0981 196.1196 0015038 101.7557 258.5302 14.12202567439163
Epoch (UTC): 16 August 2017 10:06:50
Eccentricity: 0.0015038
inclination: 99.0981°
perigee height: 841 km
apogee height: 863 km
right ascension of ascending node: 196.1196°
argument of perigee: 101.7557°
revolutions per day: 14.12202567
mean anomaly at epoch: 258.5302°
orbit number at epoch: 43916

The dashed part of the orbit path shows where the satellite is in the earth's shadow,  

DLR